Weather reports worldwide

Advertisment
Santander/Parayas, Spain (8021): temperature & dewpoint: 16.09.2018 23:00:00 - 22.09.2018 23:00:00 (CEST)Santander/Parayas, Spain (8021): wind speed: 16.09.2018 23:00:00 - 22.09.2018 23:00:00 (CEST)Santander/Parayas, Spain (8021): wind direction: 16.09.2018 23:00:00 - 22.09.2018 23:00:00 (CEST)Santander/Parayas, Spain (8021): reduced air pressure: 16.09.2018 23:00:00 - 22.09.2018 23:00:00 (CEST)Santander/Parayas, Spain (8021): visibility: 16.09.2018 23:00:00 - 22.09.2018 23:00:00 (CEST)
Date & Time tt [°C] td [°C] ff [km/h] ff [kn] dd ppp [hPa] vv [km]
22.09.2018 23:00:00 19,3 17,8 5 3 WSW 1025,1 15
22.09.2018 22:00:00 19,3 17,4 5 3 W 1024,9 -
22.09.2018 21:00:00 20,7 17,7 9 5 WNW 1024,3 -
22.09.2018 20:00:00 22,8 17,9 9 5 WNW 1023,8 20
22.09.2018 19:00:00 25,5 18,2 11 6 WNW 1023,5 -
22.09.2018 18:00:00 26,7 18,3 9 5 W 1023,4 -
22.09.2018 17:00:00 26,5 18,5 15 8 WNW 1023,6 -
22.09.2018 16:00:00 27,2 18,6 15 8 WNW 1023,6 -
22.09.2018 15:00:00 27,7 18,8 16 9 WNW 1023,4 -
22.09.2018 14:00:00 26,7 19,3 11 6 NE 1023,4 30
22.09.2018 13:00:00 26,9 18,8 5 3 ENE 1023,3 -
22.09.2018 12:00:00 24,3 18,9 4 2 ENE 1023,2 -
22.09.2018 11:00:00 22,2 18,8 5 3 NE 1023,1 15
22.09.2018 10:00:00 19,9 19,9 0 0 N 1023,0 -
22.09.2018 09:00:00 16,7 16,7 4 2 WSW 1023,0 -
22.09.2018 08:00:00 15,6 15,6 0 0 N 1022,6 6
22.09.2018 07:00:00 15,1 15,1 0 0 N 1022,4 -
22.09.2018 06:00:00 15,7 15,7 4 2 SSE 1022,2 -
22.09.2018 05:00:00 16,1 16,1 4 2 S 1022,7 -
22.09.2018 04:00:00 16,6 16,6 0 0 N 1023,6 -
22.09.2018 03:00:00 17,9 17,6 8 4 E 1023,8 -
22.09.2018 02:00:00 18,2 17,2 8 4 E 1023,9 -
22.09.2018 01:00:00 19,2 17,7 11 6 ENE 1024,2 -
22.09.2018 00:00:00 19,3 17,6 9 5 E 1024,2 -
21.09.2018 23:00:00 19,5 17,8 8 4 ENE 1024,6 12
21.09.2018 22:00:00 19,3 18,1 11 6 E 1024,6 -
21.09.2018 21:00:00 19,1 18,9 13 7 ENE 1024,3 -
21.09.2018 20:00:00 19,0 18,7 11 6 ENE 1023,8 8
21.09.2018 19:00:00 20,8 18,6 9 5 N 1023,7 -
21.09.2018 18:00:00 21,5 18,8 11 6 N 1023,1 -
21.09.2018 17:00:00 22,1 18,9 15 8 WNW 1022,8 25
21.09.2018 16:00:00 22,6 18,4 16 9 W 1022,6 -
21.09.2018 15:00:00 23,0 18,2 18 10 WNW 1022,4 -
21.09.2018 14:00:00 24,4 17,9 15 8 W 1022,0 30
21.09.2018 13:00:00 24,3 17,2 18 10 WNW 1022,1 -
21.09.2018 12:00:00 23,2 17,0 15 8 WNW 1021,8 -
21.09.2018 11:00:00 21,6 17,5 5 3 W 1021,0 20
21.09.2018 10:00:00 19,5 16,5 4 2 W 1020,4 -
21.09.2018 09:00:00 17,4 15,4 4 2 SE 1019,6 -
21.09.2018 08:00:00 17,2 15,9 0 0 N 1018,9 15
21.09.2018 07:00:00 16,3 16,1 2 1 SSW 1018,6 -
21.09.2018 06:00:00 16,8 16,8 4 2 SSW 1018,1 -
21.09.2018 05:00:00 17,2 17,2 4 2 SSW 1018,2 -
21.09.2018 04:00:00 18,0 18,0 13 7 SSW 1018,1 -
21.09.2018 03:00:00 18,3 18,3 9 5 S 1018,0 -
21.09.2018 02:00:00 19,0 19,0 8 4 SW 1018,4 -
21.09.2018 01:00:00 19,1 19,1 8 4 WSW 1018,3 -
21.09.2018 00:00:00 18,5 18,5 9 5 W 1018,6 -
20.09.2018 23:00:00 18,7 18,7 4 2 NW 1018,4 5
20.09.2018 22:00:00 18,8 17,8 0 0 N 1018,5 -
20.09.2018 21:00:00 20,6 19,1 5 3 WNW 1017,8 -
20.09.2018 20:00:00 21,6 19,3 5 3 WNW 1017,7 12
20.09.2018 19:00:00 23,5 19,8 9 5 WNW 1017,7 -
20.09.2018 18:00:00 24,0 20,0 9 5 WNW 1017,5 -
20.09.2018 17:00:00 24,4 19,9 8 4 SW 1017,9 15
20.09.2018 16:00:00 23,7 20,4 15 8 NW 1018,2 -
20.09.2018 15:00:00 23,6 20,0 13 7 NNW 1018,1 -
20.09.2018 14:00:00 23,4 19,9 11 6 N 1018,5 10
20.09.2018 13:00:00 23,4 20,0 5 3 WNW 1019,2 -
20.09.2018 12:00:00 22,7 20,2 11 6 W 1019,7 -
20.09.2018 11:00:00 23,3 20,0 4 2 NE 1019,7 7
20.09.2018 10:00:00 21,8 20,6 5 3 NE 1019,4 -
20.09.2018 09:00:00 20,1 20,1 4 2 E 1019,6 -
20.09.2018 08:00:00 19,7 19,7 8 4 NE 1019,7 6
20.09.2018 07:00:00 20,2 20,2 5 3 ENE 1020,0 -
20.09.2018 06:00:00 19,9 19,9 2 1 E 1020,6 -
20.09.2018 05:00:00 19,5 19,5 0 0 N 1021,1 -
20.09.2018 04:00:00 19,4 19,4 0 0 N 1021,5 -
20.09.2018 03:00:00 20,0 19,8 4 2 S 1022,0 -
20.09.2018 02:00:00 20,2 20,0 0 0 N 1022,4 -
20.09.2018 01:00:00 20,1 19,9 4 2 W 1022,8 -
20.09.2018 00:00:00 19,8 19,1 4 2 WSW 1022,8 -
19.09.2018 23:00:00 20,6 19,6 5 3 WSW 1022,7 15
19.09.2018 22:00:00 20,9 19,6 8 4 W 1022,5 -
19.09.2018 21:00:00 21,3 19,8 8 4 W 1022,1 -
19.09.2018 20:00:00 21,8 19,9 8 4 W 1021,8 15
19.09.2018 19:00:00 22,8 19,8 8 4 W 1021,7 -
19.09.2018 18:00:00 22,8 20,0 5 3 W 1021,5 -
19.09.2018 17:00:00 22,7 19,7 11 6 W 1021,7 18
19.09.2018 16:00:00 23,0 19,4 13 7 NW 1021,8 -
19.09.2018 15:00:00 23,8 19,6 13 7 WNW 1021,9 -
19.09.2018 14:00:00 24,1 19,2 9 5 WNW 1021,8 15
19.09.2018 13:00:00 23,2 19,6 11 6 NW 1021,8 -
19.09.2018 12:00:00 23,2 19,4 4 2 W 1021,7 -
19.09.2018 11:00:00 20,9 19,6 8 4 SW 1021,6 6
19.09.2018 10:00:00 19,8 19,6 2 1 W 1021,5 -
19.09.2018 09:00:00 19,3 19,3 8 4 SW 1021,0 -
19.09.2018 08:00:00 18,8 18,8 8 4 SW 1020,6 4,0
19.09.2018 07:00:00 18,6 18,6 5 3 SSW 1020,0 -
19.09.2018 06:00:00 17,9 17,9 4 2 SSE 1019,4 -
19.09.2018 05:00:00 18,9 18,9 2 1 E 1019,1 -
19.09.2018 04:00:00 18,6 18,6 4 2 ESE 1019,4 -
19.09.2018 03:00:00 19,1 19,1 9 5 SSW 1020,1 -
19.09.2018 02:00:00 18,8 18,8 8 4 WSW 1020,5 -
19.09.2018 01:00:00 18,3 18,3 2 1 SSE 1020,3 -
19.09.2018 00:00:00 18,5 18,3 4 2 E 1019,8 -
18.09.2018 23:00:00 19,4 19,1 5 3 E 1019,6 12
18.09.2018 22:00:00 19,4 18,2 0 0 N 1019,8 -
18.09.2018 21:00:00 21,0 19,5 5 3 NE 1018,9 -
18.09.2018 20:00:00 22,1 19,8 8 4 ENE 1018,5 15
18.09.2018 19:00:00 22,3 19,7 5 3 ENE 1018,3 -
18.09.2018 18:00:00 22,8 19,8 9 5 E 1017,9 -
18.09.2018 17:00:00 23,0 19,4 5 3 NNE 1017,6 20
18.09.2018 16:00:00 22,7 19,6 13 7 NNW 1017,3 -
18.09.2018 15:00:00 24,3 19,5 15 8 N 1016,8 -
18.09.2018 14:00:00 24,5 19,3 13 7 NE 1017,2 18
18.09.2018 13:00:00 24,8 19,5 9 5 NE 1017,5 -
18.09.2018 12:00:00 24,4 18,5 4 2 NNE 1017,7 -
18.09.2018 11:00:00 22,2 18,1 4 2 WSW 1017,6 15
18.09.2018 10:00:00 20,3 17,3 4 2 SSW 1017,1 -
18.09.2018 09:00:00 17,7 16,4 4 2 S 1017,0 -
18.09.2018 08:00:00 16,6 15,6 2 1 S 1016,5 12
18.09.2018 07:00:00 16,1 15,1 8 4 SSW 1016,1 -
18.09.2018 06:00:00 17,4 16,6 4 2 WSW 1015,8 -
18.09.2018 05:00:00 17,6 16,5 4 2 SW 1015,6 -
18.09.2018 04:00:00 18,2 16,9 0 0 N 1015,1 -
18.09.2018 03:00:00 18,4 15,8 8 4 E 1015,2 -
18.09.2018 02:00:00 17,9 15,3 8 4 W 1015,8 -
18.09.2018 01:00:00 17,9 15,9 8 4 SW 1016,1 -
18.09.2018 00:00:00 19,1 16,0 8 4 W 1016,1 -
17.09.2018 23:00:00 20,0 16,0 0 0 N 1016,0 20
17.09.2018 22:00:00 20,2 15,7 8 4 SW 1015,7 -
17.09.2018 21:00:00 21,8 16,1 5 3 W 1014,8 -
17.09.2018 20:00:00 22,8 16,0 8 4 W 1014,3 20
17.09.2018 19:00:00 24,3 16,0 16 9 WSW 1013,0 -
17.09.2018 18:00:00 25,6 16,3 18 10 W 1012,9 -
17.09.2018 17:00:00 26,6 17,1 21 11 W 1013,1 -
17.09.2018 16:00:00 26,5 18,0 21 11 WNW 1013,1 -
17.09.2018 15:00:00 32,1 19,1 15 8 N 1012,6 -
17.09.2018 14:00:00 34,3 14,9 18 10 SSW 1013,2 20
17.09.2018 13:00:00 33,2 15,6 18 10 SSW 1013,6 -
17.09.2018 12:00:00 31,5 15,3 18 10 S 1013,9 9
17.09.2018 11:00:00 25,4 16,7 9 5 S 1014,2 -
17.09.2018 10:00:00 19,3 19,3 4 2 NNE 1014,7 -
17.09.2018 09:00:00 16,2 16,2 4 2 SSW 1015,3 -
17.09.2018 08:00:00 14,0 14,0 0 0 N 1015,6 -
17.09.2018 07:00:00 15,0 15,0 0 0 N 1016,1 -
17.09.2018 06:00:00 15,4 15,4 4 2 WNW 1016,8 -
17.09.2018 05:00:00 15,1 15,1 0 0 N 1017,6 -
17.09.2018 04:00:00 15,7 15,7 0 0 N 1018,3 -
17.09.2018 03:00:00 16,5 16,3 0 0 N 1019,0 -
17.09.2018 02:00:00 18,0 17,4 2 1 NE 1019,9 -
17.09.2018 01:00:00 19,4 18,4 8 4 ENE 1020,4 -
17.09.2018 00:00:00 19,8 18,5 4 2 SE 1020,9 -
16.09.2018 23:00:00 20,2 18,1 0 0 N 1021,5 15

tt = temperature
td = dewpoint
ff = wind speed
dd = wind direction
ppp = reduced air pressure
vv = visibility

Next stations